Temp
12 11 10 9 9 9 9 10 9 8 7 6 5 4 4 3 3 3 2 2 1 1
11 11 10 9 9 9 9 9 8 7 6 4 4 4 5 3 2 2 1 1 1 0
12 11 10 9 9 10 9 8 7 6 6 5 4 3 3 3 2 1 1 0 -0 -1
12 11 10 10 9 8 9 8 7 7 5 4 3 2 1 1 1 0 0 -0 -1 -2
13 12 11 11 9 8 7 6 6 4 4 2 1 2 1 1 0 -0 -0 -1 -2 -2
13 12 10 9 8 7 5 4 3 3 0 0 1 0 0 0 -1 -1 -1 -2 -2 -2
10 8 8 7 6 5 4 3 2 2 1 1 -0 -1 -1 -1 -1 -1 -2 -2 -2 -3
8 7 6 5 5 3 3 2 2 1 1 0 -1 -1 -1 -1 -1 -1 -2 -2 -3 -3
6 5 4 4 3 3 1 0 0 0 -1 -1 -1 -1 -1 -1 -2 -2 -2 -3 -3 -3
4 4 3 2 0 -0 -0 0 -0 -1 -1 -1 -1 -1 -1 -1 -2 -2 -3 -3 -3 -4
3 2 0 -0 -0 0 -0 -0 -0 -0 -1 -1 -1 -1 -1 -2 -2 -3 -3 -3 -4 -4
1 0 0 0 0 -0 -1 -1 -1 -1 -1 -1 -1 -1 -2 -2 -3 -3 -3 -3 -4 -4
1 1 0 -0 -1 -1 -1 -1 -1 -1 -1 -2 -2 -2 -3 -3 -4 -4 -4 -4 -4 -4
0 -0 -0 -1 -1 -1 -1 -1 -1 -2 -2 -2 -3 -3 -3 -4 -4 -5 -5 -5 -5 -5
Height
1526 1530 1532 1536 1537 1538 1540 1541 1543 1544 1546 1548 1548 1551 1553 1551 1551 1549 1548 1547 1548 1546
1522 1524 1527 1529 1531 1533 1535 1536 1539 1541 1542 1544 1543 1547 1547 1546 1545 1544 1544 1543 1543 1543
1515 1519 1521 1523 1526 1527 1529 1531 1534 1536 1538 1539 1542 1541 1540 1541 1540 1540 1540 1540 1539 1538
1510 1512 1514 1517 1519 1522 1524 1526 1526 1529 1532 1534 1535 1536 1536 1538 1539 1538 1537 1535 1534 1533
1506 1507 1509 1512 1516 1517 1520 1522 1526 1528 1529 1527 1530 1530 1531 1533 1533 1532 1531 1531 1528 1527
1501 1503 1504 1508 1511 1514 1519 1520 1521 1523 1526 1528 1529 1527 1527 1527 1528 1527 1525 1524 1522 1520
1496 1498 1502 1505 1505 1516 1515 1519 1518 1520 1522 1525 1524 1525 1524 1523 1522 1521 1519 1517 1515 1513
1495 1497 1500 1505 1506 1511 1513 1514 1517 1519 1520 1520 1519 1518 1518 1518 1517 1515 1513 1511 1509 1506
1493 1497 1501 1504 1507 1508 1511 1513 1514 1516 1515 1513 1513 1514 1514 1513 1511 1509 1506 1504 1501 1499
1495 1498 1500 1503 1506 1506 1510 1511 1512 1510 1511 1509 1509 1509 1508 1507 1504 1501 1499 1496 1493 1491
1495 1497 1500 1502 1505 1507 1507 1508 1507 1506 1506 1505 1504 1503 1501 1500 1496 1493 1490 1487 1485 1482
1496 1499 1501 1503 1503 1502 1503 1503 1502 1502 1501 1499 1498 1497 1495 1492 1489 1485 1481 1478 1475 1472
1497 1498 1499 1499 1499 1500 1499 1498 1497 1496 1495 1493 1490 1489 1487 1485 1480 1475 1472 1468 1463 1461
1495 1495 1496 1496 1496 1496 1495 1493 1492 1490 1488 1486 1484 1480 1478 1475 1471 1466 1461 1457 1452 1449
Wind_Speed
35 35 36 29 28 27 29 28 30 30 28 27 25 22 18 22 19 19 14 14 16 16
33 36 35 32 30 27 28 31 32 30 28 27 22 23 22 17 16 14 14 15 15 15
30 31 34 31 30 29 30 33 33 30 26 26 21 19 17 16 11 13 14 14 14 16
25 28 27 30 32 31 33 32 32 21 25 22 18 11 10 11 14 14 15 15 15 17
21 23 27 30 29 30 28 28 24 22 19 14 11 12 7 13 15 15 16 15 16 19
24 26 28 27 25 20 17 21 16 16 11 9 12 8 11 14 14 17 17 16 18 21
23 23 19 18 12 5 19 18 15 12 14 12 13 13 12 14 17 19 19 19 21 22
14 12 12 15 10 15 12 11 13 7 13 18 19 16 13 17 20 21 22 22 23 24
10 13 15 11 11 12 11 4 6 17 18 16 13 13 15 20 23 24 25 26 26 26
14 13 11 11 9 6 2 9 21 16 13 14 16 18 21 22 26 27 28 29 30 29
13 13 12 8 5 11 13 14 10 12 15 18 20 21 23 24 26 29 31 33 32 32
12 8 3 11 13 10 8 11 14 17 19 20 22 22 23 24 28 31 35 36 36 35
5 8 10 4 5 8 12 14 16 17 19 21 24 25 26 26 30 35 37 38 39 39
4 3 4 6 8 11 14 17 20 23 26 28 29 31 31 31 31 34 37 38 39 40
Wind_Direction
248 249 247 243 239 246 239 234 230 230 231 232 233 235 261 296 295 302 289 293 292 291
250 248 246 241 240 236 232 230 229 228 229 226 235 249 274 278 292 285 288 286 290 294
257 251 249 240 231 230 229 228 227 229 238 242 253 256 267 285 273 278 284 287 291 293
262 252 245 241 233 229 232 229 228 244 235 243 247 251 291 281 275 285 292 290 290 296
252 249 239 242 236 234 228 228 228 238 231 225 239 291 291 274 274 288 292 288 286 299
243 238 237 236 233 225 225 219 205 217 211 264 294 272 279 276 273 288 288 285 287 298
243 237 236 233 198 260 220 211 216 253 274 280 265 267 281 272 282 285 288 287 289 295
259 237 210 185 207 201 202 226 258 275 290 290 270 271 278 278 285 286 288 287 291 293
213 187 187 205 191 207 220 244 321 297 294 292 293 289 276 285 285 287 288 289 291 292
178 188 180 174 190 199 257 293 306 303 294 292 285 286 284 283 284 286 286 288 289 289
175 168 157 173 219 296 292 301 296 298 290 287 289 289 287 285 282 283 285 286 286 284
150 153 197 301 293 297 290 289 294 293 293 295 295 296 296 294 290 288 287 287 285 280
179 269 295 301 289 284 288 291 295 295 296 296 298 301 300 299 297 293 291 290 287 282
278 268 275 279 287 294 298 300 301 301 301 299 299 298 297 295 291 290 290 289 287 286